| time (UTC) | temp F | wind direction | speed MPH | gust MPH | rain 1hr in | rain 24hr in | rain mn in | humidity % | barometer mb |
| 20260505160325 | 58 | 292 | 8.0 | 11.0 | 0.00 | 0.00 | 0.00 | 20 | 1010.1 |
| 20260505153024 | 58 | 295 | 6.0 | 10.0 | 0.00 | 0.00 | 0.00 | 20 | 1010.1 |
| 20260505151924 | 58 | 197 | 5.0 | 10.0 | 0.00 | 0.00 | 0.00 | 20 | 1010.0 |
| 20260505140225 | 58 | 341 | 10.0 | 16.0 | 0.00 | 0.00 | 0.00 | 20 | 1010.2 |
| 20260505124523 | 58 | 295 | 6.0 | 8.0 | 0.00 | 0.00 | 0.00 | 22 | 1010.2 |
| 20260505123423 | 57 | 266 | 10.0 | 15.0 | 0.00 | 0.00 | 0.00 | 22 | 1010.2 |
| 20260505122323 | 57 | 263 | 7.0 | 11.0 | 0.00 | 0.00 | 0.00 | 22 | 1010.2 |
| 20260505121224 | 57 | 211 | 7.0 | 10.0 | 0.00 | 0.00 | 0.00 | 22 | 1010.4 |
| 20260505120123 | 57 | 307 | 9.0 | 15.0 | 0.00 | 0.00 | 0.00 | 22 | 1010.5 |
| 20260505115024 | 57 | 210 | 7.0 | 11.0 | 0.00 | 0.00 | 0.00 | 24 | 1010.6 |
| 20260505113923 | 56 | 270 | 8.0 | 12.0 | 0.00 | 0.00 | 0.00 | 22 | 1010.4 |
| 20260505112823 | 56 | 260 | 8.0 | 11.0 | 0.00 | 0.00 | 0.00 | 28 | 1010.6 |
| 20260505110624 | 56 | 241 | 8.0 | 11.0 | 0.00 | 0.00 | 0.00 | 30 | 1010.7 |
| 20260505101124 | 55 | 240 | 9.0 | 14.0 | 0.00 | 0.00 | 0.00 | 32 | 1010.8 |
| 20260505100023 | 55 | 273 | 9.0 | 11.0 | 0.00 | 0.00 | 0.00 | 36 | 1010.9 |
| 20260505093822 | 54 | 242 | 10.0 | 15.0 | 0.00 | 0.00 | 0.00 | 40 | 1010.8 |
| 20260505092723 | 54 | 252 | 10.0 | 14.0 | 0.00 | 0.00 | 0.00 | 42 | 1010.8 |
| 20260505091622 | 54 | 298 | 10.0 | 14.0 | 0.00 | 0.00 | 0.00 | 43 | 1010.8 |
| 20260505090522 | 54 | 259 | 8.0 | 12.0 | 0.00 | 0.00 | 0.00 | 47 | 1010.8 |
| 20260505085423 | 54 | 225 | 7.0 | 11.0 | 0.00 | 0.00 | 0.00 | 50 | 1010.8 |
| 20260505084321 | 53 | 291 | 9.0 | 11.0 | 0.00 | 0.00 | 0.00 | 50 | 1010.7 |
| 20260505083222 | 53 | 254 | 8.0 | 11.0 | 0.00 | 0.00 | 0.00 | 51 | 1010.8 |
| 20260505082122 | 53 | 229 | 8.0 | 11.0 | 0.00 | 0.00 | 0.00 | 54 | 1010.7 |
| 20260505075921 | 52 | 268 | 8.0 | 11.0 | 0.00 | 0.00 | 0.00 | 54 | 1010.8 |
| 20260505074823 | 53 | 234 | 8.0 | 11.0 | 0.00 | 0.00 | 0.00 | 56 | 1010.8 |
| 20260505073721 | 53 | 215 | 9.0 | 11.0 | 0.00 | 0.00 | 0.00 | 57 | 1010.6 |
| 20260505072622 | 53 | 243 | 8.0 | 10.0 | 0.00 | 0.00 | 0.00 | 60 | 1010.7 |
| 20260505071521 | 53 | 239 | 8.0 | 11.0 | 0.00 | 0.00 | 0.00 | 61 | 1010.6 |
| 20260505070421 | 51 | 302 | 10.0 | 14.0 | 0.00 | 0.00 | 0.00 | 61 | 1010.7 |
| 20260505065321 | 52 | 202 | 7.0 | 11.0 | 0.00 | 0.00 | 0.00 | 63 | 1010.6 |
| 20260505064221 | 51 | 303 | 9.0 | 15.0 | 0.00 | 0.00 | 0.00 | 63 | 1010.7 |
| 20260505063121 | 51 | 241 | 7.0 | 11.0 | 0.00 | 0.00 | 0.00 | 69 | 1010.4 |
| 20260505062021 | 50 | 242 | 10.0 | 13.0 | 0.00 | 0.00 | 0.00 | 70 | 1010.5 |
| 20260505060922 | 49 | 256 | 8.0 | 11.0 | 0.00 | 0.00 | 0.00 | 71 | 1010.4 |
| 20260505055822 | 48 | 199 | 7.0 | 10.0 | 0.00 | 0.00 | 0.00 | 72 | 1010.1 |
| 20260505054722 | 48 | 219 | 9.0 | 13.0 | 0.00 | 0.00 | 0.00 | 73 | 1010.1 |
| 20260505053620 | 48 | 243 | 8.0 | 12.0 | 0.00 | 0.00 | 0.00 | 75 | 1010.0 |
| 20260505052522 | 47 | 226 | 9.0 | 13.0 | 0.00 | 0.00 | 0.00 | 78 | 1009.8 |
| 20260505050321 | 46 | 229 | 7.0 | 11.0 | 0.00 | 0.01 | 0.00 | 79 | 1009.6 |
| 20260505040821 | 44 | 251 | 5.0 | 8.0 | 0.00 | 0.01 | 0.00 | 85 | 1009.8 |
| 20260505035720 | 44 | 229 | 6.0 | 9.0 | 0.00 | 0.03 | 0.00 | 85 | 1009.8 |
| 20260505034620 | 44 | 242 | 6.0 | 8.0 | 0.00 | 0.03 | 0.00 | 86 | 1009.8 |
| 20260505033520 | 44 | 243 | 7.0 | 10.0 | 0.00 | 0.04 | 0.00 | 86 | 1009.8 |
| 20260505032420 | 44 | 270 | 6.0 | 10.0 | 0.00 | 0.05 | 0.00 | 86 | 1009.7 |
| 20260505030220 | 44 | 253 | 9.0 | 14.0 | 0.00 | 0.08 | 0.00 | 85 | 1009.8 |
| 20260505024020 | 44 | 234 | 12.0 | 17.0 | 0.00 | 0.10 | 0.00 | 86 | 1009.8 |
| 20260505022921 | 44 | 264 | 11.0 | 16.0 | 0.00 | 0.13 | 0.00 | 86 | 1009.8 |
| 20260505021820 | 44 | 232 | 10.0 | 17.0 | 0.00 | 0.15 | 0.00 | 85 | 1009.9 |
| 20260505015620 | 44 | 258 | 6.0 | 9.0 | 0.00 | 0.20 | 0.00 | 84 | 1009.9 |
| 20260505014519 | 44 | 240 | 9.0 | 12.0 | 0.00 | 0.22 | 0.00 | 84 | 1010.0 |
| 20260505013420 | 45 | 249 | 10.0 | 15.0 | 0.00 | 0.23 | 0.00 | 84 | 1009.9 |
| 20260505010120 | 45 | 255 | 10.0 | 15.0 | 0.00 | 0.31 | 0.00 | 84 | 1010.0 |
| 20260505005019 | 45 | 268 | 9.0 | 15.0 | 0.00 | 0.31 | 0.00 | 85 | 1010.0 |
| 20260505003919 | 45 | 248 | 9.0 | 15.0 | 0.00 | 0.32 | 0.00 | 85 | 1010.1 |
| 20260505002819 | 45 | 241 | 10.0 | 14.0 | 0.00 | 0.33 | 0.00 | 85 | 1010.1 |
| 20260504234419 | 46 | 230 | 8.0 | 15.0 | 0.00 | 0.34 | 0.00 | 80 | 1010.2 |
| 20260504233320 | 46 | 252 | 8.0 | 12.0 | 0.00 | 0.34 | 0.00 | 80 | 1010.3 |
| 20260504232218 | 46 | 246 | 7.0 | 15.0 | 0.00 | 0.36 | 0.00 | 80 | 1010.5 |
| 20260504231119 | 45 | 194 | 6.0 | 15.0 | 0.00 | 0.36 | 0.00 | 85 | 1010.3 |
| 20260504230018 | 45 | 225 | 7.0 | 9.0 | 0.00 | 0.36 | 0.00 | 84 | 1010.4 |
| 20260504224919 | 45 | 234 | 5.0 | 7.0 | 0.00 | 0.36 | 0.00 | 84 | 1010.6 |
| 20260504223818 | 45 | 191 | 4.0 | 8.0 | 0.00 | 0.36 | 0.00 | 83 | 1010.4 |
| 20260504222718 | 45 | 197 | 3.0 | 5.0 | 0.00 | 0.36 | 0.00 | 82 | 1010.5 |
| 20260504220518 | 46 | 231 | 5.0 | 7.0 | 0.00 | 0.36 | 0.00 | 74 | 1010.4 |
| 20260504215418 | 45 | 205 | 4.0 | 8.0 | 0.00 | 0.36 | 0.36 | 78 | 1010.4 |
| 20260504214318 | 45 | 173 | 3.0 | 5.0 | 0.00 | 0.36 | 0.36 | 74 | 1010.4 |
| 20260504212118 | 46 | 185 | 2.0 | 4.0 | 0.00 | 0.36 | 0.36 | 66 | 1010.4 |
| 20260504211018 | 46 | 165 | 3.0 | 3.0 | 0.00 | 0.36 | 0.36 | 65 | 1010.5 |
| 20260504205918 | 46 | 164 | 2.0 | 4.0 | 0.00 | 0.36 | 0.36 | 64 | 1010.5 |
| 20260504204819 | 47 | 165 | 2.0 | 3.0 | 0.00 | 0.36 | 0.36 | 63 | 1010.3 |
| 20260504203719 | 47 | 200 | 2.0 | 4.0 | 0.00 | 0.36 | 0.36 | 62 | 1010.2 |
| 20260504202619 | 48 | 176 | 2.0 | 3.0 | 0.00 | 0.36 | 0.36 | 61 | 1010.3 |
| 20260504200418 | 49 | 172 | 3.0 | 4.0 | 0.00 | 0.36 | 0.36 | 60 | 1010.1 |
| 20260504195318 | 50 | 168 | 4.0 | 8.0 | 0.00 | 0.36 | 0.36 | 60 | 1010.3 |
| 20260504194218 | 50 | 196 | 5.0 | 8.0 | 0.00 | 0.36 | 0.36 | 59 | 1010.3 |
| 20260504192018 | 51 | 201 | 4.0 | 6.0 | 0.00 | 0.36 | 0.36 | 59 | 1010.0 |
| 20260504190918 | 52 | 203 | 6.0 | 8.0 | 0.00 | 0.36 | 0.36 | 58 | 1010.0 |
| 20260504185817 | 52 | 190 | 5.0 | 8.0 | 0.00 | 0.36 | 0.36 | 58 | 1010.0 |
| 20260504184717 | 53 | 199 | 5.0 | 7.0 | 0.00 | 0.36 | 0.36 | 58 | 1009.8 |
| 20260504183618 | 54 | 209 | 6.0 | 8.0 | 0.00 | 0.36 | 0.36 | 56 | 1009.8 |
| 20260504182519 | 54 | 206 | 5.0 | 10.0 | 0.00 | 0.36 | 0.36 | 54 | 1009.7 |
| 20260504181417 | 55 | 218 | 7.0 | 10.0 | 0.00 | 0.36 | 0.36 | 49 | 1009.7 |
| 20260504180317 | 55 | 220 | 8.0 | 11.0 | 0.00 | 0.36 | 0.36 | 47 | 1009.7 |
| 20260504175217 | 56 | 218 | 7.0 | 8.0 | 0.00 | 0.36 | 0.36 | 46 | 1009.6 |
| 20260504174117 | 56 | 222 | 7.0 | 10.0 | 0.00 | 0.36 | 0.36 | 44 | 1009.6 |
| 20260504173018 | 57 | 230 | 10.0 | 13.0 | 0.00 | 0.36 | 0.36 | 42 | 1009.6 |
| 20260504171917 | 57 | 260 | 11.0 | 15.0 | 0.00 | 0.36 | 0.36 | 43 | 1009.3 |
| 20260504170818 | 58 | 225 | 10.0 | 13.0 | 0.00 | 0.36 | 0.36 | 45 | 1009.1 |